Powrót do katalogu

HJS-4B

AktywnyNaukaLEO
NORAD 58692·PAYLOAD·🇨🇳 China

Wystrzelony Dec 30, 2023 z Jiuquan Satellite Launch Center

Loading…

Następne Przeloty (najbliższe 24 godziny)

TLE

ŚwieżeSource: Space-Track

Epoka: Sep 14, 2026, 14:51 UTC

1 58692U 23212B   26257.61875380 -.00000112  00000-0  28649-4 0  9998
2 58692  49.9992  16.4360 0000795  46.5476 313.5468 13.41460483133255

Śledź HJS-4B w czasie rzeczywistym z AllMySat

Download on the App Store